Location: Bartshausen
(51.8454°N, 9.8167°E)
Time: 11:26:02
(UTC+00:00)

Cosmos 2228 Rocket - Pass Details

Date: 08 November 2025
Orbit: 614 x 645 km, 82.5° (Epoch: 09 December)

Event Time Altitude Azimuth Distance (km) Brightness Sun altitude
Exits shadow 05:03:22 20° 276° (W) 1,427 4.3 -13.2°
Maximum altitude 05:04:18 22° 295° (WNW) 1,373 4.2 -13.0°
Drops below altitude 10° 05:07:45 10° 346° (NNW) 2,001 5.4 -12.5°
Sets 05:10:27 0° 2° (N) 2,918 6.4 -12.1°
